• In Denmark
  • List of Countries
  • For 7 days
  • Water Temperature
  • Satellite Maps
  • Weather Map
  • Weather Widgets
  • user-avatar
    Login

    Hourly Weather Newcastle

    Today, 22 November, Wednesday

    Time Temperature Precipitation Wind Pressure Humidity
    00:00 +16°C° 0.1 mm 2 mps 765 mmHg 96%
    01:00 +16°C° 0.1 mm 2 mps 764 mmHg 96%
    02:00 +15°C° 0.1 mm 2 mps 764 mmHg 97%
    03:00 +15°C° 0.1 mm 2 mps 764 mmHg 97%
    04:00 +15°C° 0 mm 1 mps 764 mmHg 97%
    05:00 +18°C° 0 mm 1 mps 764 mmHg 92%
    06:00 +20°C° 0 mm 1 mps 764 mmHg 86%
    07:00 +21°C° 0 mm 1 mps 764 mmHg 81%
    08:00 +21°C° 0.1 mm 2 mps 764 mmHg 74%
    09:00 +24°C° 0.1 mm 3 mps 764 mmHg 67%
    10:00 +25°C° 0.1 mm 3 mps 763 mmHg 60%
    11:00 +25°C° 0.5 mm 4 mps 763 mmHg 60%
    12:00 +25°C° 0.5 mm 4 mps 763 mmHg 61%
    13:00 +25°C° 0.5 mm 4 mps 762 mmHg 62%
    14:00 +25°C° 0.3 mm 4 mps 762 mmHg 63%
    15:00 +25°C° 0.3 mm 4 mps 762 mmHg 63%
    16:00 +25°C° 0.3 mm 4 mps 761 mmHg 64%
    17:00 +22°C° 0.2 mm 3 mps 762 mmHg 72%
    18:00 +20°C° 0.2 mm 3 mps 762 mmHg 81%
    19:00 +18°C° 0.2 mm 2 mps 762 mmHg 89%
    20:00 +18°C° 0.2 mm 2 mps 762 mmHg 91%
    21:00 +17°C° 0.2 mm 2 mps 762 mmHg 94%
    22:00 +17°C° 0.2 mm 3 mps 763 mmHg 96%
    23:00 +16°C° 0 mm 2 mps 762 mmHg 96%

    Tomorrow, 23 November, Thursday

    Time Temperature Precipitation Wind Pressure Humidity
    00:00 +16°C° 0 mm 2 mps 762 mmHg 96%
    01:00 +16°C° 0 mm 2 mps 761 mmHg 97%
    02:00 +16°C° 0 mm 2 mps 761 mmHg 97%
    03:00 +15°C° 0 mm 2 mps 761 mmHg 97%
    04:00 +15°C° 0 mm 1 mps 761 mmHg 97%
    05:00 +18°C° 0 mm 1 mps 761 mmHg 91%
    06:00 +20°C° 0 mm 1 mps 761 mmHg 84%
    07:00 +22°C° 0 mm 1 mps 762 mmHg 78%
    08:00 +24°C° 0 mm 1 mps 762 mmHg 68%
    09:00 +26°C° 0 mm 2 mps 762 mmHg 58%
    10:00 +28°C° 0 mm 2 mps 762 mmHg 48%
    11:00 +28°C° 0 mm 3 mps 761 mmHg 47%
    12:00 +29°C° 0 mm 3 mps 761 mmHg 45%
    13:00 +30°C° 0 mm 4 mps 760 mmHg 43%
    14:00 +29°C° 0.1 mm 4 mps 760 mmHg 48%
    15:00 +28°C° 0.1 mm 5 mps 760 mmHg 52%
    16:00 +27°C° 0.1 mm 5 mps 760 mmHg 57%
    17:00 +25°C° 0 mm 5 mps 760 mmHg 63%
    18:00 +23°C° 0 mm 5 mps 760 mmHg 70%
    19:00 +21°C° 0 mm 5 mps 761 mmHg 76%
    20:00 +20°C° 0 mm 4 mps 761 mmHg 79%
    21:00 +20°C° 0 mm 4 mps 761 mmHg 83%
    22:00 +19°C° 0 mm 4 mps 762 mmHg 86%
    23:00 +18°C° 0 mm 4 mps 761 mmHg 89%

    Day after tomorrow, 24 November, Friday

    Time Temperature Precipitation Wind Pressure Humidity
    00:00 +17°C° 0 mm 3 mps 761 mmHg 92%
    01:00 +17°C° 0 mm 3 mps 761 mmHg 95%
    02:00 +16°C° 0 mm 3 mps 761 mmHg 96%
    03:00 +16°C° 0 mm 3 mps 761 mmHg 96%
    04:00 +16°C° 0 mm 2 mps 761 mmHg 97%
    05:00 +18°C° 0 mm 2 mps 761 mmHg 87%
    06:00 +20°C° 0 mm 2 mps 761 mmHg 78%
    07:00 +23°C° 0 mm 2 mps 762 mmHg 69%
    08:00 +26°C° 0 mm 2 mps 761 mmHg 59%
    09:00 +29°C° 0 mm 2 mps 761 mmHg 48%
    10:00 +32°C° 0 mm 2 mps 761 mmHg 38%
    11:00 +34°C° 0 mm 3 mps 761 mmHg 36%
    12:00 +34°C° 0 mm 3 mps 761 mmHg 34%
    13:00 +35°C° 0 mm 4 mps 760 mmHg 32%
    14:00 +34°C° 0 mm 4 mps 760 mmHg 35%
    15:00 +32°C° 0 mm 4 mps 760 mmHg 38%
    16:00 +30°C° 0 mm 5 mps 760 mmHg 41%
    17:00 +28°C° 0 mm 5 mps 760 mmHg 51%
    18:00 +26°C° 0 mm 4 mps 761 mmHg 60%
    19:00 +22°C° 0 mm 4 mps 761 mmHg 70%
    20:00 +21°C° 0 mm 3 mps 761 mmHg 76%
    21:00 +20°C° 0 mm 3 mps 762 mmHg 83%
    22:00 +19°C° 0 mm 2 mps 762 mmHg 89%
    23:00 +18°C° 0 mm 2 mps 762 mmHg 91%

    25 November, Saturday

    Time Temperature Precipitation Wind Pressure Humidity
    00:00 +18°C° 0 mm 2 mps 762 mmHg 93%
    01:00 +18°C° 0 mm 2 mps 761 mmHg 95%
    02:00 +17°C° 0 mm 2 mps 761 mmHg 96%
    03:00 +17°C° 0 mm 2 mps 761 mmHg 96%
    04:00 +18°C° 0 mm 1 mps 761 mmHg 96%
    05:00 +20°C° 0 mm 1 mps 762 mmHg 88%
    06:00 +22°C° 0 mm 1 mps 762 mmHg 79%
    07:00 +24°C° 0 mm 1 mps 762 mmHg 71%
    08:00 +26°C° 0 mm 2 mps 762 mmHg 61%
    09:00 +28°C° 0 mm 2 mps 762 mmHg 50%
    10:00 +31°C° 0 mm 3 mps 762 mmHg 40%
    11:00 +31°C° 0 mm 3 mps 761 mmHg 38%
    12:00 +33°C° 0 mm 4 mps 761 mmHg 35%
    13:00 +33°C° 0 mm 4 mps 761 mmHg 33%
    14:00 +32°C° 0 mm 4 mps 760 mmHg 36%
    15:00 +30°C° 0 mm 5 mps 760 mmHg 40%
    16:00 +29°C° 0 mm 5 mps 760 mmHg 43%
    17:00 +27°C° 0 mm 4 mps 761 mmHg 54%
    18:00 +25°C° 0 mm 4 mps 761 mmHg 66%
    19:00 +21°C° 0 mm 3 mps 762 mmHg 77%
    20:00 +20°C° 0 mm 3 mps 762 mmHg 83%
    21:00 +19°C° 0 mm 3 mps 762 mmHg 89%
    22:00 +18°C° 0 mm 2 mps 762 mmHg 96%
    23:00 +18°C° 0 mm 2 mps 762 mmHg 96%

    26 November, Sunday

    Time Temperature Precipitation Wind Pressure Humidity
    00:00 +17°C° 0 mm 2 mps 762 mmHg 97%
    01:00 +17°C° 0 mm 2 mps 761 mmHg 97%
    02:00 +17°C° 0 mm 2 mps 761 mmHg 98%
    03:00 +17°C° 0 mm 2 mps 761 mmHg 98%
    04:00 +16°C° 0 mm 2 mps 761 mmHg 98%
    05:00 +18°C° 0 mm 2 mps 761 mmHg 91%
    06:00 +20°C° 0 mm 2 mps 761 mmHg 85%
    07:00 +21°C° 0 mm 2 mps 762 mmHg 78%
    08:00 +25°C° 0 mm 2 mps 762 mmHg 66%
    09:00 +27°C° 0 mm 3 mps 762 mmHg 54%
    10:00 +30°C° 0 mm 3 mps 761 mmHg 42%
    11:00 +32°C° 0 mm 4 mps 761 mmHg 39%
    12:00 +33°C° 0 mm 4 mps 761 mmHg 37%
    13:00 +34°C° 0 mm 5 mps 760 mmHg 35%
    14:00 +33°C° 0 mm 5 mps 760 mmHg 40%
    15:00 +32°C° 0 mm 5 mps 760 mmHg 45%
    16:00 +32°C° 0 mm 6 mps 759 mmHg 49%
    17:00 +29°C° 0 mm 6 mps 760 mmHg 59%
    18:00 +27°C° 0 mm 6 mps 760 mmHg 68%
    19:00 +24°C° 0 mm 6 mps 760 mmHg 77%
    20:00 +23°C° 0 mm 6 mps 761 mmHg 81%
    21:00 +22°C° 0 mm 5 mps 761 mmHg 85%
    22:00 +22°C° 0 mm 5 mps 761 mmHg 89%
    23:00 +21°C° 0 mm 4 mps 761 mmHg 91%

    27 November, Monday

    Time Temperature Precipitation Wind Pressure Humidity
    00:00 +20°C° 0 mm 4 mps 760 mmHg 93%
    01:00 +20°C° 0 mm 4 mps 760 mmHg 96%
    02:00 +20°C° 0 mm 4 mps 760 mmHg 96%
    03:00 +19°C° 0 mm 3 mps 760 mmHg 97%
    04:00 +19°C° 0 mm 3 mps 760 mmHg 97%
    05:00 +20°C° 0 mm 3 mps 760 mmHg 91%
    06:00 +22°C° 0 mm 3 mps 761 mmHg 84%
    07:00 +24°C° 0 mm 2 mps 761 mmHg 78%
    08:00 +27°C° 0 mm 2 mps 761 mmHg 68%
    09:00 +29°C° 0 mm 2 mps 761 mmHg 58%
    10:00 +32°C° 0 mm 2 mps 761 mmHg 48%
    11:00 +33°C° 0 mm 3 mps 760 mmHg 46%
    12:00 +34°C° 0 mm 4 mps 760 mmHg 43%
    13:00 +34°C° 0 mm 4 mps 759 mmHg 40%
    14:00 +32°C° 0.9 mm 5 mps 759 mmHg 53%
    15:00 +29°C° 0.9 mm 5 mps 759 mmHg 66%
    16:00 +27°C° 0.9 mm 5 mps 759 mmHg 79%
    17:00 +26°C° 2.2 mm 5 mps 759 mmHg 84%
    18:00 +23°C° 2.2 mm 5 mps 760 mmHg 88%
    19:00 +22°C° 2.2 mm 5 mps 761 mmHg 93%
    20:00 +22°C° 1.4 mm 4 mps 761 mmHg 94%
    21:00 +22°C° 1.4 mm 4 mps 761 mmHg 94%
    22:00 +21°C° 1.4 mm 4 mps 761 mmHg 95%
    23:00 +21°C° 0.3 mm 3 mps 761 mmHg 95%
    Show more